{"data":{"norad_id":62465,"intl_designator":"2024-254D","name":"STARLINK-11178 [DTC]","alt_names":[],"object_type":"PAYLOAD","status":"ACTIVE","operator":null,"country":"US","launch_date":"2024-12-31","launch_site_code":"AFETR","launch_vehicle":null,"mission":null,"orbit_class":"UNKNOWN","rcs_meters":null,"size_class":null,"mass_kg":null,"dimensions":null,"purposes":["comms"],"wikipedia_slug":null,"has_3d_model":false,"image_url":null,"decayed_at":null,"tle_current":{"epoch":"2026-09-21T14:55:32.002752Z","epoch_age_seconds":77637,"freshness":"FRESH","line1":"1 62465U 24254D   26264.62189818  .00029789  00000+0  23464-3 0  9999","line2":"2 62465  43.0009 122.2059 0000566 279.0218  81.0585 15.70857880100050","mean_motion":15.7085788,"eccentricity":5.66e-5,"inclination_deg":43.0009,"raan_deg":122.2059,"arg_perigee_deg":279.0218,"mean_anomaly_deg":81.0585,"bstar":0.00023464,"rev_number":10005,"period_min":91.669655054982,"perigee_km":356.0627803848,"apogee_km":356.82513494921,"semimajor_km":6734.580957667,"source":"CELESTRAK","updated_at":"2026-09-22T09:00:49.611626Z"}}}